Regional Weather Roundup
Issued by NWS Little Rock, AR

Home | Current Version | Previous Version | Text Only | Print | Product List | Glossary On
Versions: 1 2 3 4 5 6 7 8 9 10 11 12 13 14 15 16 17 18 19 20 21 22 23 24 25 26 27 28 29 30 31
000
ASUS44 KLZK 231005
RWRLZK

WEATHER ROUNDUP FOR ARKANSAS
NATIONAL WEATHER SERVICE LITTLE ROCK AR
500 AM CDT SUN JUL 23 2017

NOTE: "FAIR" INDICATES FEW OR NO CLOUDS BELOW 12,000 FEET WITH NO
SIGNIFICANT WEATHER AND/OR OBSTRUCTIONS TO VISIBILITY.

ARZ001-003-010-029-231100-
NORTHWEST ARKANSAS

CITY           SKY/WX    TMP DP  RH WIND       PRES   REMARKS
FAYETTEVILLE   CLOUDY    73  73 100 SE3       29.93S
FORT SMITH     CLEAR     79  75  87 NE3       29.88R
HARRISON       CLOUDY    75  71  87 W5        29.94R
BENTONVILLE    MOCLDY    77  70  78 CALM      29.94S
ROGERS         CLOUDY    75  72  90 CALM      29.94F
SILOAM SPGS    MOCLDY    75  70  83 CALM      29.93S
HIGHFILL       MOCLDY    77  72  84 SW3       29.93F
$$

ARZ004-005-016-231100-
NORTH CENTRAL ARKANSAS

CITY           SKY/WX    TMP DP  RH WIND       PRES   REMARKS
BATESVILLE     PTCLDY    79  73  83 CALM      29.89R
FLIPPIN        PTCLDY    75  66  73 CALM      29.89S
MTN HOME       MOCLDY    74  72  93 CALM      29.91R
$$

ARZ040-041-231100-
WEST CENTRAL ARKANSAS

CITY           SKY/WX    TMP DP  RH WIND       PRES   REMARKS
MENA           CLEAR     75  73  94 CALM      29.93S
MOUNT IDA      CLEAR     75  71  87 CALM      29.89R
$$

ARZ009-017-025-026-028-231100-
NORTHEAST ARKANSAS

CITY           SKY/WX    TMP DP  RH WIND       PRES   REMARKS
JONESBORO      CLEAR     80  77  90 SW10      29.87R HX  87
WALNUT RIDGE   CLOUDY    81  73  78 SW8       29.87R HX  85
BLYTHEVILLE    CLEAR     79  76  90 SW10      29.87R
$$

ARZ022-023-033-042-044-231100-
CENTRAL ARKANSAS

CITY           SKY/WX    TMP DP  RH WIND       PRES   REMARKS
LITTLE ROCK    PTCLDY    77  75  93 S3        29.90R
N LITTLE ROCK    N/A     78  74  88 W3        29.87S
JACKSONVILLE   PTCLDY    78  76  91 SW5       29.89R
CONWAY           N/A     79  75  89 S6        29.87S
SEARCY         CLEAR     76  76 100 SW3       29.90S FOG
HOT SPRINGS    CLEAR     79  76  90 W5        29.91R
RUSSELLVILLE   CLEAR     75  74  96 CALM      29.87F
CLINTON        FAIR      73  73 100 CALM      29.89S FOG
$$

ARZ036-231100-
EAST ARKANSAS

CITY           SKY/WX    TMP DP  RH WIND       PRES   REMARKS
WEST MEMPHIS   PTCLDY    76  74  93 S7        29.89R
$$

ARZ050-053-066-070-073-231100-
SOUTHWEST ARKANSAS

CITY           SKY/WX    TMP DP  RH WIND       PRES   REMARKS
ARKADELPHIA    FAIR      74  73  97 CALM      29.90S
CAMDEN         PTCLDY    75  72  88 CALM      29.90S
TEXARKANA      CLEAR     77  75  93 SW6       29.90R
EL DORADO      CLEAR     74  73  97 SW3       29.92R
DE QUEEN       CLEAR     75  75 100 CALM      29.88R FOG
$$

ARZ056-057-069-231100-
SOUTHEAST ARKANSAS

CITY           SKY/WX    TMP DP  RH WIND       PRES   REMARKS
PINE BLUFF     CLEAR     75  72  90 CALM      29.91R
STUTTGART      CLEAR     75  63  64 S6        29.91R
MONTICELLO     CLEAR     76  72  87 SW5       29.91S

$$






USA.gov is the U.S. government's official web portal to all federal, state and local government web resources and services.